Niagara Falls, NY

6:04 AM EST on December 12, 2019 (GMT -0500)
Niagara Falls International

Weather History for KIAG - November, 2019

Change the Weather History Date:

Saturday, November 16, 2019

  Actual Average Record
Temperature  
Mean Temperature 24 °F -  
Max Temperature 28 °F 45 °F 66 °F (2005)
Min Temperature 19 °F 30 °F 19 °F (2019)
Degree Days  
Heating Degree Days 42    
Moisture  
Dew Point 15 °F    
Average Humidity 71    
Maximum Humidity 78    
Minimum Humidity 60    
Precipitation  
Precipitation 0.00 in - - ()
Sea Level Pressure  
Sea Level Pressure 30.54 in    
Wind  
Wind Speed 11 mph (ENE)    
Max Wind Speed 16 mph    
Max Gust Speed 23 mph    
Visibility 10 miles    
Events      
Averages and records for this station are not official NWS values.
T = Trace of Precipitation, MM = Missing Value Source: NWS Daily Summary

Daily Weather History Graph

Daily Weather History Graph

Search for Another Location

Airport or City:

Astronomy

Nov. 16, 2019 Rise Set
Actual Time 7:09 AM EST 4:51 PM EST
Civil Twilight 6:38 AM EST 5:21 PM EST
Nautical Twilight 6:04 AM EST 5:56 PM EST
Astronomical Twilight 5:30 AM EST 6:29 PM EST
Moon 8:19 PM EST (11/16) 11:04 AM EST (11/16)
Length of Visible Light 10h 43m
Length of Day
9h 41m
Waning Gibbous, 82% of the Moon is Illuminated
Nov 16
Waning Gibbous
Nov 19
Last Quarter
Nov 26
New
Dec 4
First Quarter
Dec 12
Full

Hourly Weather History & Observations

Time (EST) Temp. Windchill Dew Point Humidity Pressure Visibility Wind Dir Wind Speed Gust Speed Precip Events Conditions
12:53 AM 24.1 °F 13.7 °F 12.0 °F 60% 30.49 in 10.0 mi NNE 10.4 mph - N/A   Clear
1:53 AM 23.0 °F 11.7 °F 12.0 °F 63% 30.51 in - NNE 11.5 mph - N/A   Clear
2:53 AM 21.0 °F 13.4 °F 12.0 °F 68% 30.51 in 10.0 mi NE 5.8 mph - N/A   Clear
3:53 AM 21.0 °F 11.4 °F 12.0 °F 68% 30.52 in 10.0 mi NE 8.1 mph - N/A   Clear
4:53 AM 19.0 °F 9.0 °F 12.0 °F 74% 30.53 in 10.0 mi NE 8.1 mph - N/A   Clear
5:53 AM 19.0 °F 7.5 °F 12.9 °F 77% 30.55 in 10.0 mi NE 10.4 mph - N/A   Clear
6:53 AM 19.0 °F 7.5 °F 12.9 °F 77% 30.57 in 10.0 mi NE 10.4 mph - N/A   Clear
7:53 AM 19.0 °F 10.0 °F 12.9 °F 77% 30.59 in 10.0 mi ENE 6.9 mph - N/A   Clear
8:53 AM 21.9 °F 10.4 °F 16.0 °F 78% 30.61 in 10.0 mi ENE 11.5 mph - N/A   Clear
9:51 AM 24.8 °F 14.0 °F 17.6 °F 74% 30.56 in 10.0 mi East 11.5 mph - N/A   Mostly Cloudy
9:53 AM 24.1 °F 12.0 °F 18.0 °F 77% 30.62 in 10.0 mi ENE 13.8 mph - N/A   Mostly Cloudy
10:51 AM 24.8 °F 11.9 °F 17.6 °F 74% 30.56 in 10.0 mi East 16.1 mph 23.0 mph N/A   Partly Cloudy
10:53 AM 25.0 °F 12.6 °F 17.1 °F 72% 30.62 in 10.0 mi East 15.0 mph 23.0 mph N/A   Partly Cloudy
11:53 AM 27.0 °F 15.2 °F 17.1 °F 66% 30.59 in 10.0 mi ENE 15.0 mph - N/A   Partly Cloudy
12:53 PM 27.0 °F 15.2 °F 17.1 °F 66% 30.57 in 10.0 mi East 15.0 mph - N/A   Clear
1:53 PM 28.0 °F 17.0 °F 16.0 °F 61% 30.54 in 10.0 mi East 13.8 mph - N/A   Clear
2:53 PM 27.0 °F 15.2 °F 16.0 °F 63% 30.53 in 10.0 mi ENE 15.0 mph - N/A   Clear
3:53 PM 26.1 °F 14.0 °F 16.0 °F 66% 30.53 in 10.0 mi ENE 15.0 mph - N/A   Clear
4:53 PM 25.0 °F 13.6 °F 15.1 °F 66% 30.54 in 10.0 mi ENE 12.7 mph - N/A   Clear
5:53 PM 23.0 °F 12.4 °F 16.0 °F 74% 30.54 in 10.0 mi ENE 10.4 mph - N/A   Clear
6:53 PM 23.0 °F 12.4 °F 16.0 °F 74% 30.53 in 10.0 mi East 10.4 mph - N/A   Clear
7:53 PM 23.0 °F 12.4 °F 16.0 °F 74% 30.52 in 10.0 mi East 10.4 mph - N/A   Clear
8:53 PM 21.9 °F 13.4 °F 15.1 °F 75% 30.51 in 9.0 mi East 6.9 mph - N/A   Clear
9:53 PM 21.0 °F 12.4 °F 14.0 °F 74% 30.49 in 9.0 mi East 6.9 mph - N/A   Clear
10:53 PM 21.9 °F 11.0 °F 14.0 °F 72% 30.45 in 9.0 mi East 10.4 mph - N/A   Clear
11:53 PM 21.9 °F 13.4 °F 12.0 °F 66% 30.43 in 10.0 mi East 6.9 mph - N/A   Clear